Maribor, Slovenia

4:11 PM CET on November 19, 2017 (GMT +0100)
Maribor

Weather History for LJMB - July, 2013

Change the Weather History Date:

Wednesday, July 3, 2013

  Actual Average Record
Temperature  
Mean Temperature 69 °F -  
Max Temperature 84 °F - - ()
Min Temperature 54 °F - - ()
Cooling Degree Days 4    
Growing Degree Days 19 (Base 50)    
Moisture  
Dew Point 57 °F    
Average Humidity 68    
Maximum Humidity 100    
Minimum Humidity 29    
Precipitation  
Precipitation 0.00 in - - ()
Sea Level Pressure  
Sea Level Pressure 29.98 in    
Wind  
Wind Speed 4 mph ()    
Max Wind Speed 13 mph    
Max Gust Speed -    
Visibility 7.0 miles    
Events Rain , Thunderstorm    
T = Trace of Precipitation, MM = Missing Value Source: Averaged Metar Reports

Daily Weather History Graph

Daily Weather History Graph

Search for Another Location

Airport or City:

Trip Planner

Search our weather history database for the weather conditions in past years. The results will help you decide how hot, cold, wet, or windy it might be!

Date:

Astronomy

Jul. 03, 2013 Rise Set
Actual Time 5:09 AM CEST 8:53 PM CEST
Civil Twilight 4:30 AM CEST 9:31 PM CEST
Nautical Twilight 3:38 AM CEST 10:23 PM CEST
Astronomical Twilight 2:25 AM CEST 11:36 PM CEST
Moon 1:45 AM CEST (7/3) 4:40 PM CEST (7/3)
Length of Visible Light 17h 00m
Length of Day
15h 43m
Waning Crescent, 20% of the Moon is Illuminated
Jul 3
Waning Crescent
Jul 8
New
Jul 16
First Quarter
Jul 22
Full
Jul 29
Last Quarter

Hourly Weather History & Observations

Time (CEST) Temp. Heat Index Dew Point Humidity Pressure Visibility Wind Dir Wind Speed Gust Speed Precip Events Conditions
12:00 AM 60.8 °F - 57.2 °F 88% 30.04 in 6.2 mi Variable 1.2 mph - N/A   Unknown
12:30 AM 59.0 °F - 55.4 °F 88% 30.04 in 6.2 mi Calm Calm - N/A   Unknown
1:00 AM 59.0 °F - 55.4 °F 88% 30.04 in 6.2 mi NW 1.2 mph - N/A   Unknown
1:30 AM 57.2 °F - 55.4 °F 94% 30.04 in 6.2 mi WNW 2.3 mph - N/A   Unknown
2:00 AM 58 °F - 56 °F 92% 30.04 in - NNE 2.2 mph - -  
2:00 AM 59.0 °F - 57.2 °F 94% 30.04 in 6.2 mi Calm Calm - N/A   Unknown
2:30 AM 57.2 °F - 55.4 °F 94% 30.04 in 6.2 mi Calm Calm - N/A   Unknown
3:00 AM 57.2 °F - 55.4 °F 94% 30.04 in 6.2 mi Calm Calm - N/A   Unknown
3:30 AM 57.2 °F - 55.4 °F 94% 30.01 in 6.2 mi Calm Calm - N/A   Unknown
4:00 AM 55.4 °F - 53.6 °F 94% 30.01 in 5.6 mi Calm Calm - N/A   Unknown
4:30 AM 55.4 °F - 55.4 °F 100% 30.01 in 4.3 mi North 1.2 mph - N/A   Unknown
5:00 AM 54 °F - 52 °F 91% 30.03 in - North 2.2 mph - -  
5:00 AM 53.6 °F - 51.8 °F 94% 30.01 in 3.7 mi Calm Calm - N/A   Unknown
5:30 AM 53.6 °F - 53.6 °F 100% 30.01 in 4.3 mi NW 1.2 mph - N/A   Unknown
6:00 AM 55.4 °F - 53.6 °F 94% 30.01 in - Calm Calm - N/A   Clear
6:30 AM 57.2 °F - 55.4 °F 94% 30.01 in - Calm Calm - N/A   Clear
7:00 AM 60.8 °F - 57.2 °F 88% 30.01 in - Variable 1.2 mph - N/A   Clear
7:30 AM 62.6 °F - 57.2 °F 82% 30.01 in - Variable 2.3 mph - N/A   Clear
8:00 AM 65 °F - 57 °F 69% 30.00 in 12 mi SE 2.2 mph - -   Clear
8:00 AM 64.4 °F - 57.2 °F 77% 30.01 in - Variable 2.3 mph - N/A   Clear
8:30 AM 66.2 °F - 55.4 °F 68% 30.01 in - Variable 3.5 mph - N/A   Clear
9:00 AM 69.8 °F - 57.2 °F 64% 30.01 in - South 5.8 mph - N/A   Clear
9:30 AM 71.6 °F - 57.2 °F 60% 30.01 in - South 5.8 mph - N/A   Clear
10:00 AM 73.4 °F - 57.2 °F 57% 30.01 in - South 8.1 mph - N/A   Clear
10:30 AM 75.2 °F - 57.2 °F 53% 30.01 in - SSE 8.1 mph - N/A   Clear
11:00 AM 77 °F - 57 °F 40% 29.97 in 12 mi South 11.2 mph - -   Clear
11:00 AM 77.0 °F - 57.2 °F 50% 30.01 in - South 9.2 mph - N/A   Clear
11:30 AM 77.0 °F - 57.2 °F 50% 30.01 in - South 8.1 mph - N/A   Clear
12:00 PM 78.8 °F - 55.4 °F 44% 29.98 in - SSE 11.5 mph - N/A   Clear
12:30 PM 80.6 °F 80.5 °F 55.4 °F 42% 29.98 in - SSE 12.7 mph - N/A   Clear
1:00 PM 80.6 °F 80.5 °F 55.4 °F 42% 29.98 in - SSE 12.7 mph - N/A   Clear
1:30 PM 80.6 °F 80.5 °F 55.4 °F 42% 29.98 in - South 9.2 mph - N/A   Clear
2:00 PM 81 °F - 56 °F 33% 29.92 in 12 mi South 11.2 mph - -   Scattered Clouds
2:00 PM 82.4 °F 82.0 °F 57.2 °F 42% 29.95 in - South 9.2 mph - N/A   Clear
2:30 PM 82.4 °F 82.0 °F 57.2 °F 42% 29.95 in - SSE 10.4 mph - N/A   Clear
3:00 PM 82.4 °F 82.0 °F 57.2 °F 42% 29.95 in 6.2 mi South 8.1 mph - N/A   Scattered Clouds
3:30 PM 82.4 °F 81.7 °F 55.4 °F 39% 29.92 in 6.2 mi SSE 8.1 mph - N/A   Scattered Clouds
4:00 PM 82.4 °F 82.0 °F 57.2 °F 42% 29.92 in 6.2 mi SSE 10.4 mph - N/A   Scattered Clouds
4:30 PM 82.4 °F 82.0 °F 57.2 °F 42% 29.92 in 6.2 mi SSE 10.4 mph - N/A   Scattered Clouds
5:00 PM 84 °F - 57 °F 29% 29.87 in 19 mi SSE 13.4 mph - -   Scattered Clouds
5:00 PM 84.2 °F 83.5 °F 57.2 °F 40% 29.92 in 6.2 mi SSE 11.5 mph - N/A   Scattered Clouds
5:30 PM 84.2 °F 83.5 °F 57.2 °F 40% 29.92 in 6.2 mi SSE 11.5 mph - N/A   Scattered Clouds
6:00 PM 80.6 °F 80.8 °F 57.2 °F 45% 29.92 in 6.2 mi South 8.1 mph - N/A Thunderstorm Thunderstorm
6:30 PM 80.6 °F 80.8 °F 57.2 °F 45% 29.92 in 6.2 mi South 8.1 mph - N/A Thunderstorm Thunderstorm
7:00 PM 71.6 °F - 60.8 °F 69% 29.92 in 6.2 mi South 3.5 mph - N/A Rain Light Rain Showers
7:30 PM 69.8 °F - 60.8 °F 73% 29.92 in 6.2 mi South 3.5 mph - N/A Rain Light Rain Showers
8:00 PM 71 °F - 61 °F 62% 29.91 in 25 mi South 6.7 mph - - Rain Light Rain Showers
8:00 PM 71.6 °F - 60.8 °F 69% 29.92 in 6.2 mi SSE 4.6 mph - N/A   Mostly Cloudy
8:30 PM 69.8 °F - 60.8 °F 73% 29.95 in 6.2 mi SE 3.5 mph - N/A   Mostly Cloudy
9:00 PM 69.8 °F - 60.8 °F 73% 29.95 in - SSE 4.6 mph - N/A   Clear
9:30 PM 68.0 °F - 62.6 °F 83% 29.95 in - South 4.6 mph - N/A   Clear
10:00 PM 68.0 °F - 62.6 °F 83% 29.98 in - Calm Calm - N/A   Clear
10:30 PM 66.2 °F - 60.8 °F 83% 29.98 in 6.2 mi Calm Calm - N/A   Unknown
11:00 PM 68 °F - 59 °F 66% 29.95 in - South 4.5 mph - -  
11:00 PM 68.0 °F - 59.0 °F 73% 29.98 in 6.2 mi South 2.3 mph - N/A   Unknown
11:30 PM 66.2 °F - 59.0 °F 78% 29.98 in 6.2 mi SSW 2.3 mph - N/A   Unknown